Meteo pe oră la Abbenrode

Astăzi, 5 August, Joi

Timp Temperatura Precipitaţii Vânt Presiune Umiditate
00:00 +14°C° 0.2 mm 1 m/s 738 mmHg 88%
01:00 +13°C° 0 mm 0 m/s 737 mmHg 89%
02:00 +13°C° 0.1 mm 0 m/s 737 mmHg 90%
03:00 +13°C° 0.1 mm 0 m/s 737 mmHg 90%
04:00 +12°C° 0.1 mm 0 m/s 737 mmHg 90%
05:00 +13°C° 0 mm 0 m/s 737 mmHg 88%
06:00 +14°C° 0 mm 0 m/s 737 mmHg 87%
07:00 +15°C° 0 mm 0 m/s 737 mmHg 85%
08:00 +18°C° 0.3 mm 1 m/s 737 mmHg 81%
09:00 +19°C° 0.3 mm 1 m/s 737 mmHg 78%
10:00 +20°C° 0.3 mm 1 m/s 737 mmHg 74%
11:00 +21°C° 0.7 mm 1 m/s 736 mmHg 72%
12:00 +21°C° 0.7 mm 1 m/s 736 mmHg 71%
13:00 +21°C° 0.7 mm 1 m/s 736 mmHg 69%
14:00 +22°C° 0.2 mm 1 m/s 736 mmHg 67%
15:00 +21°C° 0.2 mm 2 m/s 735 mmHg 66%
16:00 +21°C° 0.2 mm 2 m/s 735 mmHg 64%
17:00 +20°C° 0.3 mm 2 m/s 735 mmHg 69%
18:00 +20°C° 0.3 mm 2 m/s 735 mmHg 73%
19:00 +19°C° 0.3 mm 2 m/s 734 mmHg 78%
20:00 +18°C° 0 mm 2 m/s 734 mmHg 81%
21:00 +16°C° 0 mm 2 m/s 734 mmHg 85%
22:00 +15°C° 0 mm 2 m/s 734 mmHg 88%
23:00 +15°C° 0 mm 2 m/s 734 mmHg 89%

Mâine, 6 August, Vineri

Timp Temperatura Precipitaţii Vânt Presiune Umiditate
00:00 +15°C° 0 mm 2 m/s 734 mmHg 90%
01:00 +14°C° 0 mm 2 m/s 734 mmHg 91%
02:00 +14°C° 0 mm 2 m/s 734 mmHg 91%
03:00 +14°C° 0 mm 2 m/s 733 mmHg 92%
04:00 +14°C° 0 mm 2 m/s 733 mmHg 92%
05:00 +15°C° 0 mm 2 m/s 733 mmHg 89%
06:00 +16°C° 0 mm 2 m/s 733 mmHg 87%
07:00 +17°C° 0 mm 2 m/s 733 mmHg 84%
08:00 +18°C° 0.3 mm 2 m/s 733 mmHg 79%
09:00 +19°C° 0.3 mm 3 m/s 733 mmHg 74%
10:00 +21°C° 0.3 mm 4 m/s 733 mmHg 70%
11:00 +20°C° 0.6 mm 4 m/s 733 mmHg 72%
12:00 +20°C° 0.6 mm 4 m/s 733 mmHg 74%
13:00 +20°C° 0.6 mm 4 m/s 733 mmHg 76%
14:00 +20°C° 0.4 mm 4 m/s 733 mmHg 73%
15:00 +21°C° 0.4 mm 5 m/s 733 mmHg 69%
16:00 +22°C° 0.4 mm 5 m/s 733 mmHg 65%
17:00 +21°C° 0.3 mm 4 m/s 733 mmHg 70%
18:00 +20°C° 0.3 mm 4 m/s 733 mmHg 76%
19:00 +19°C° 0.3 mm 3 m/s 733 mmHg 81%
20:00 +17°C° 0 mm 3 m/s 733 mmHg 84%
21:00 +16°C° 0 mm 2 m/s 734 mmHg 88%
22:00 +15°C° 0 mm 2 m/s 734 mmHg 91%
23:00 +15°C° 0 mm 2 m/s 734 mmHg 92%

Poimâine, 7 August, Sâmbătă

Timp Temperatura Precipitaţii Vânt Presiune Umiditate
00:00 +15°C° 0 mm 2 m/s 734 mmHg 92%
01:00 +14°C° 0 mm 2 m/s 734 mmHg 93%
02:00 +14°C° 0 mm 2 m/s 734 mmHg 93%
03:00 +14°C° 0 mm 2 m/s 734 mmHg 93%
04:00 +13°C° 0 mm 2 m/s 734 mmHg 93%
05:00 +14°C° 0 mm 2 m/s 734 mmHg 90%
06:00 +15°C° 0 mm 2 m/s 734 mmHg 87%
07:00 +16°C° 0 mm 2 m/s 734 mmHg 84%
08:00 +18°C° 0 mm 2 m/s 734 mmHg 77%
09:00 +19°C° 0 mm 2 m/s 734 mmHg 71%
10:00 +20°C° 0 mm 3 m/s 734 mmHg 64%
11:00 +21°C° 0 mm 3 m/s 734 mmHg 60%
12:00 +22°C° 0 mm 3 m/s 734 mmHg 55%
13:00 +24°C° 0 mm 3 m/s 733 mmHg 51%
14:00 +22°C° 0.2 mm 4 m/s 733 mmHg 59%
15:00 +20°C° 0.2 mm 4 m/s 734 mmHg 68%
16:00 +18°C° 0.2 mm 4 m/s 734 mmHg 77%
17:00 +18°C° 0 mm 3 m/s 733 mmHg 78%
18:00 +17°C° 0 mm 3 m/s 733 mmHg 80%
19:00 +17°C° 0 mm 2 m/s 733 mmHg 81%
20:00 +17°C° 0 mm 2 m/s 733 mmHg 82%
21:00 +16°C° 0 mm 2 m/s 733 mmHg 84%
22:00 +16°C° 0 mm 2 m/s 734 mmHg 85%
23:00 +15°C° 0 mm 2 m/s 734 mmHg 87%

8 August, Duminică

Timp Temperatura Precipitaţii Vânt Presiune Umiditate
00:00 +14°C° 0 mm 3 m/s 734 mmHg 88%
01:00 +14°C° 0 mm 3 m/s 734 mmHg 90%
02:00 +13°C° 0 mm 3 m/s 734 mmHg 91%
03:00 +13°C° 0 mm 3 m/s 733 mmHg 92%
04:00 +13°C° 0 mm 3 m/s 733 mmHg 93%
05:00 +14°C° 0 mm 4 m/s 734 mmHg 89%
06:00 +15°C° 0 mm 4 m/s 734 mmHg 85%
07:00 +15°C° 0 mm 5 m/s 734 mmHg 81%
08:00 +16°C° 0 mm 5 m/s 735 mmHg 77%
09:00 +17°C° 0 mm 6 m/s 735 mmHg 73%
10:00 +17°C° 0 mm 6 m/s 736 mmHg 68%
11:00 +18°C° 0 mm 7 m/s 736 mmHg 63%
12:00 +20°C° 0 mm 7 m/s 736 mmHg 59%
13:00 +21°C° 0 mm 7 m/s 736 mmHg 54%
14:00 +20°C° 0 mm 7 m/s 737 mmHg 56%
15:00 +20°C° 0 mm 7 m/s 737 mmHg 58%
16:00 +20°C° 0 mm 7 m/s 737 mmHg 61%
17:00 +19°C° 0.2 mm 6 m/s 738 mmHg 66%
18:00 +17°C° 0.2 mm 5 m/s 738 mmHg 71%
19:00 +17°C° 0.2 mm 4 m/s 739 mmHg 77%
20:00 +15°C° 0 mm 4 m/s 739 mmHg 79%
21:00 +15°C° 0 mm 4 m/s 739 mmHg 81%
22:00 +14°C° 0 mm 4 m/s 740 mmHg 84%
23:00 +14°C° 0 mm 4 m/s 740 mmHg 86%

9 August, Luni

Timp Temperatura Precipitaţii Vânt Presiune Umiditate
00:00 +13°C° 0 mm 4 m/s 740 mmHg 88%
01:00 +13°C° 0 mm 4 m/s 740 mmHg 90%
02:00 +12°C° 0 mm 4 m/s 740 mmHg 90%
03:00 +12°C° 0 mm 3 m/s 740 mmHg 90%
04:00 +12°C° 0 mm 3 m/s 740 mmHg 90%
05:00 +13°C° 0 mm 3 m/s 741 mmHg 86%
06:00 +13°C° 0 mm 3 m/s 741 mmHg 82%
07:00 +14°C° 0 mm 3 m/s 741 mmHg 78%
08:00 +17°C° 0 mm 4 m/s 742 mmHg 71%
09:00 +17°C° 0 mm 5 m/s 742 mmHg 65%
10:00 +19°C° 0 mm 6 m/s 742 mmHg 58%
11:00 +20°C° 0.2 mm 6 m/s 742 mmHg 57%
12:00 +21°C° 0.2 mm 6 m/s 742 mmHg 55%
13:00 +21°C° 0.2 mm 6 m/s 742 mmHg 54%
14:00 +21°C° 0.3 mm 6 m/s 742 mmHg 56%
15:00 +21°C° 0.3 mm 5 m/s 743 mmHg 59%
16:00 +20°C° 0.3 mm 5 m/s 743 mmHg 62%
17:00 +19°C° 0.4 mm 4 m/s 743 mmHg 68%
18:00 +18°C° 0.4 mm 4 m/s 743 mmHg 75%
19:00 +17°C° 0.4 mm 3 m/s 743 mmHg 81%
20:00 +16°C° 0.1 mm 3 m/s 743 mmHg 84%
21:00 +15°C° 0.1 mm 2 m/s 744 mmHg 87%
22:00 +14°C° 0.1 mm 2 m/s 744 mmHg 91%
23:00 +14°C° 0 mm 2 m/s 744 mmHg 91%

10 August, Marţi

Timp Temperatura Precipitaţii Vânt Presiune Umiditate
00:00 +14°C° 0 mm 2 m/s 744 mmHg 92%
01:00 +13°C° 0 mm 2 m/s 744 mmHg 93%
02:00 +13°C° 0 mm 2 m/s 744 mmHg 94%
03:00 +13°C° 0 mm 2 m/s 744 mmHg 94%
04:00 +13°C° 0 mm 2 m/s 744 mmHg 95%
05:00 +14°C° 0 mm 2 m/s 744 mmHg 93%
06:00 +15°C° 0 mm 2 m/s 744 mmHg 91%
07:00 +14°C° 0 mm 3 m/s 745 mmHg 89%
08:00 +16°C° 0.1 mm 3 m/s 745 mmHg 84%
09:00 +17°C° 0.1 mm 3 m/s 745 mmHg 80%
10:00 +18°C° 0.1 mm 4 m/s 745 mmHg 75%
11:00 +19°C° 0.1 mm 4 m/s 745 mmHg 72%
12:00 +20°C° 0.1 mm 4 m/s 745 mmHg 69%
13:00 +20°C° 0.1 mm 4 m/s 745 mmHg 66%
14:00 +20°C° 0 mm 4 m/s 745 mmHg 68%
15:00 +19°C° 0 mm 3 m/s 745 mmHg 70%
16:00 +19°C° 0 mm 2 m/s 745 mmHg 72%
17:00 +18°C° 0 mm 2 m/s 745 mmHg 74%
18:00 +19°C° 0 mm 1 m/s 745 mmHg 77%
19:00 +19°C° 0 mm 1 m/s 745 mmHg 79%
20:00 +18°C° 0 mm 1 m/s 745 mmHg 81%
21:00 +18°C° 0 mm 1 m/s 745 mmHg 82%
22:00 +16°C° 0 mm 2 m/s 745 mmHg 84%
23:00 +16°C° 0 mm 2 m/s 745 mmHg 85%
Arată mai mult

Formular de consimțământ

Meteoprog și furnizorii noștri de servicii pot stoca și accesa date personale, precum cookies, identificatori de dispozitiv sau alte tehnologii similare pe dispozitivul dumneavoastră și procesa astfel de date pentru a personaliza conținutul și reclamele, dar și pentru a oferi caracteristici de social media și pentru a analiza traficul.

  • Stocarea și/sau accesarea informațiilor pe dispozitivul dumneavoastră

    Cookies, identificatori de dispozitiv sau alte informații pot fi stocate sau accesate pe dispozitiv în scopurile indicate mai sus.

  • Reclame și conținut personalizat, evaluarea reclamelor și a conținutului, informații despre audiențe și dezvoltarea produselor

    Reclamele și conținutul pot fi personalizate pe baza unui profil. Pot fi adăugate date suplimentare pentru a personaliza mai bine reclamele și conținutul. Performanța reclamelor și conținutului poate fi măsurată. Pot fi obținute informații despre utilizatorii care au văzut reclamele și conținutul. Aceste date pot fi utilizate pentru a dezvolta sau îmbunătăți experiența utilizatorilor, sistemele și software-ul.

Dând clic pe ‘Sunt de acord’, permiteți utilizarea cookie-urilor menționate, a identificatorilor de dispozitiv, balizelor web sau altor tehnologii similare. Setările pot fi modificate din browser-ul dispozitivului dumneavoastră.

În anumite scopuri, interesele legitime pot prima asupra consimțământului. Puteți citi mai multe informații în acest sens în Politica privind Confidențialitatea Datelor și Cookie.